TimePST,TemperatureF,Dew PointF,Humidity,Sea Level PressureIn,VisibilityMPH,Wind Direction,Wind SpeedMPH,Gust SpeedMPH,PrecipitationIn,Events,Conditions,WindDirDegrees,DateUTC
12:53 AM,23.0,15.1,72,30.28,10.0,Calm,Calm,-,N/A,,Clear,0,2013-11-24 08:53:00
1:53 AM,21.0,15.1,78,30.28,10.0,SW,3.5,-,N/A,,Clear,220,2013-11-24 09:53:00
2:53 AM,19.9,14.0,78,30.29,10.0,Calm,Calm,-,N/A,,Clear,0,2013-11-24 10:53:00
3:53 AM,19.9,14.0,78,30.29,10.0,SSW,3.5,-,N/A,,Clear,210,2013-11-24 11:53:00
4:53 AM,17.1,12.0,81,30.31,10.0,Calm,Calm,-,N/A,,Clear,0,2013-11-24 12:53:00
5:53 AM,17.1,12.0,81,30.33,10.0,Calm,Calm,-,N/A,,Clear,0,2013-11-24 13:53:00
6:53 AM,19.0,15.1,85,30.35,10.0,Calm,Calm,-,N/A,,Clear,0,2013-11-24 14:53:00
7:53 AM,21.0,16.0,81,30.38,10.0,Calm,Calm,-,N/A,,Clear,0,2013-11-24 15:53:00
8:53 AM,28.0,21.0,75,30.38,10.0,Calm,Calm,-,N/A,,Clear,0,2013-11-24 16:53:00
9:53 AM,33.1,21.9,64,30.37,10.0,Calm,Calm,-,N/A,,Clear,0,2013-11-24 17:53:00
10:53 AM,37.9,21.9,53,30.35,10.0,Variable,3.5,-,N/A,,Clear,0,2013-11-24 18:53:00
11:53 AM,43.0,19.9,40,30.34,10.0,South,3.5,-,N/A,,Clear,190,2013-11-24 19:53:00
12:53 PM,46.9,19.0,33,30.31,10.0,Variable,3.5,-,N/A,,Clear,0,2013-11-24 20:53:00
1:53 PM,48.9,18.0,29,30.30,10.0,South,3.5,-,N/A,,Clear,180,2013-11-24 21:53:00
2:53 PM,51.1,16.0,25,30.29,10.0,Calm,Calm,-,N/A,,Clear,0,2013-11-24 22:53:00
3:53 PM,50.0,16.0,26,30.31,10.0,SSW,3.5,-,N/A,,Clear,200,2013-11-24 23:53:00
4:53 PM,43.0,17.1,35,30.32,10.0,SSE,3.5,-,N/A,,Clear,150,2013-11-25 00:53:00
5:53 PM,32.0,17.1,54,30.35,10.0,Calm,Calm,-,N/A,,Clear,0,2013-11-25 01:53:00
6:53 PM,27.0,16.0,63,30.38,10.0,Calm,Calm,-,N/A,,Clear,0,2013-11-25 02:53:00
7:53 PM,28.9,16.0,58,30.39,10.0,South,3.5,-,N/A,,Clear,170,2013-11-25 03:53:00
8:53 PM,25.0,16.0,69,30.39,10.0,Calm,Calm,-,N/A,,Clear,0,2013-11-25 04:53:00
9:53 PM,23.0,15.1,72,30.39,10.0,Calm,Calm,-,N/A,,Clear,0,2013-11-25 05:53:00
10:53 PM,23.0,16.0,74,30.39,10.0,NE,4.6,-,N/A,,Clear,40,2013-11-25 06:53:00
11:53 PM,24.1,17.1,75,30.39,10.0,Calm,Calm,-,N/A,,Clear,0,2013-11-25 07:53:00